When you browse on this site, cookies collect data to enhance your experience and personalize the content and advertising you see.
Visit our Privacy Policy to learn more. By continuing to use the site, you agree to this use of cookies and data.

Stündliche Wetter Rangpur

Heute, 9 August, Sonntag

Zeit Temperatur Niederschläge Wind Luftdruck Luftfeuchtigkeit
00:00 +31°C° 0 mm 3 m/S 747 mmHg 78%
01:00 +31°C° 0.5 mm 3 m/S 747 mmHg 80%
02:00 +31°C° 0.5 mm 2 m/S 747 mmHg 82%
03:00 +30°C° 0.5 mm 2 m/S 747 mmHg 84%
04:00 +30°C° 0.6 mm 2 m/S 747 mmHg 84%
05:00 +30°C° 0.6 mm 2 m/S 747 mmHg 85%
06:00 +30°C° 0 mm 3 m/S 747 mmHg 87%
07:00 +31°C° 0.2 mm 3 m/S 747 mmHg 83%
08:00 +31°C° 0.2 mm 3 m/S 748 mmHg 78%
09:00 +33°C° 0.2 mm 4 m/S 748 mmHg 74%
10:00 +34°C° 0.2 mm 4 m/S 748 mmHg 68%
11:00 +36°C° 0.2 mm 3 m/S 748 mmHg 62%
12:00 +37°C° 0.2 mm 3 m/S 748 mmHg 56%
13:00 +37°C° 0 mm 3 m/S 747 mmHg 56%
14:00 +37°C° 0 mm 3 m/S 746 mmHg 56%
15:00 +37°C° 0 mm 3 m/S 746 mmHg 56%
16:00 +36°C° 1.4 mm 3 m/S 746 mmHg 62%
17:00 +35°C° 1.4 mm 3 m/S 745 mmHg 67%
18:00 +34°C° 1.4 mm 3 m/S 745 mmHg 72%
19:00 +34°C° 1.9 mm 3 m/S 746 mmHg 75%
20:00 +33°C° 1.9 mm 3 m/S 747 mmHg 78%
21:00 +31°C° 1.9 mm 3 m/S 747 mmHg 81%
22:00 +32°C° 1.9 mm 4 m/S 747 mmHg 82%
23:00 +32°C° 1.9 mm 4 m/S 748 mmHg 82%

Morgen, 10 August, Montag

Zeit Temperatur Niederschläge Wind Luftdruck Luftfeuchtigkeit
00:00 +30°C° 1.9 mm 4 m/S 748 mmHg 83%
01:00 +30°C° 1.8 mm 4 m/S 748 mmHg 84%
02:00 +30°C° 1.8 mm 4 m/S 747 mmHg 86%
03:00 +29°C° 1.8 mm 4 m/S 747 mmHg 88%
04:00 +29°C° 1.1 mm 3 m/S 747 mmHg 89%
05:00 +29°C° 1.1 mm 3 m/S 747 mmHg 90%
06:00 +29°C° 1.1 mm 3 m/S 747 mmHg 91%
07:00 +29°C° 0.5 mm 3 m/S 748 mmHg 89%
08:00 +30°C° 0.5 mm 3 m/S 749 mmHg 87%
09:00 +30°C° 0.5 mm 4 m/S 749 mmHg 84%
10:00 +30°C° 1.4 mm 4 m/S 749 mmHg 83%
11:00 +32°C° 1.4 mm 4 m/S 749 mmHg 82%
12:00 +32°C° 1.4 mm 4 m/S 749 mmHg 81%
13:00 +32°C° 0.7 mm 4 m/S 748 mmHg 81%
14:00 +32°C° 0.7 mm 4 m/S 748 mmHg 82%
15:00 +32°C° 0.7 mm 4 m/S 747 mmHg 82%
16:00 +30°C° 0.2 mm 4 m/S 747 mmHg 83%
17:00 +30°C° 0.2 mm 3 m/S 747 mmHg 84%
18:00 +30°C° 0.2 mm 3 m/S 747 mmHg 85%
19:00 +30°C° 1.2 mm 3 m/S 747 mmHg 87%
20:00 +29°C° 1.2 mm 3 m/S 748 mmHg 88%
21:00 +29°C° 1.2 mm 2 m/S 748 mmHg 90%
22:00 +29°C° 1.6 mm 3 m/S 748 mmHg 90%
23:00 +29°C° 1.6 mm 3 m/S 748 mmHg 90%

übermorgen, 11 August, Dienstag

Zeit Temperatur Niederschläge Wind Luftdruck Luftfeuchtigkeit
00:00 +29°C° 1.6 mm 3 m/S 748 mmHg 90%
01:00 +29°C° 2.5 mm 3 m/S 747 mmHg 89%
02:00 +29°C° 2.5 mm 3 m/S 747 mmHg 89%
03:00 +29°C° 2.5 mm 3 m/S 747 mmHg 89%
04:00 +29°C° 2.4 mm 3 m/S 747 mmHg 89%
05:00 +29°C° 2.4 mm 3 m/S 747 mmHg 89%
06:00 +29°C° 2.4 mm 3 m/S 747 mmHg 89%
07:00 +29°C° 0.8 mm 3 m/S 747 mmHg 88%
08:00 +29°C° 0.8 mm 3 m/S 747 mmHg 87%
09:00 +30°C° 0.8 mm 3 m/S 748 mmHg 87%
10:00 +30°C° 0.9 mm 3 m/S 748 mmHg 85%
11:00 +30°C° 0.9 mm 3 m/S 748 mmHg 84%
12:00 +31°C° 0.9 mm 3 m/S 748 mmHg 82%
13:00 +31°C° 0.9 mm 3 m/S 747 mmHg 81%
14:00 +31°C° 0.9 mm 3 m/S 747 mmHg 79%
15:00 +33°C° 0.9 mm 3 m/S 746 mmHg 78%
16:00 +31°C° 0.7 mm 3 m/S 746 mmHg 81%
17:00 +30°C° 0.7 mm 4 m/S 746 mmHg 85%
18:00 +29°C° 0.7 mm 4 m/S 746 mmHg 89%
19:00 +29°C° 0.5 mm 4 m/S 747 mmHg 90%
20:00 +29°C° 0.5 mm 4 m/S 748 mmHg 91%
21:00 +28°C° 0.5 mm 4 m/S 748 mmHg 92%
22:00 +28°C° 0.6 mm 4 m/S 748 mmHg 92%
23:00 +28°C° 0.6 mm 4 m/S 748 mmHg 92%

12 August, Mittwoch

Zeit Temperatur Niederschläge Wind Luftdruck Luftfeuchtigkeit
00:00 +28°C° 0.6 mm 3 m/S 749 mmHg 92%
01:00 +28°C° 1.3 mm 4 m/S 748 mmHg 93%
02:00 +28°C° 1.3 mm 4 m/S 748 mmHg 93%
03:00 +28°C° 1.3 mm 4 m/S 747 mmHg 94%
04:00 +28°C° 0.9 mm 4 m/S 747 mmHg 94%
05:00 +28°C° 0.9 mm 3 m/S 748 mmHg 94%
06:00 +28°C° 0.9 mm 3 m/S 748 mmHg 94%
07:00 +28°C° 0.3 mm 4 m/S 748 mmHg 91%
08:00 +29°C° 0.3 mm 4 m/S 749 mmHg 89%
09:00 +30°C° 0.3 mm 4 m/S 749 mmHg 86%
10:00 +30°C° 1.1 mm 3 m/S 749 mmHg 85%
11:00 +31°C° 1.1 mm 3 m/S 749 mmHg 83%
12:00 +31°C° 1.1 mm 3 m/S 749 mmHg 81%
13:00 +33°C° 1.2 mm 3 m/S 748 mmHg 80%
14:00 +33°C° 1.2 mm 3 m/S 747 mmHg 79%
15:00 +33°C° 1.2 mm 3 m/S 747 mmHg 78%
16:00 +33°C° 0.6 mm 3 m/S 746 mmHg 79%
17:00 +33°C° 0.6 mm 3 m/S 746 mmHg 79%
18:00 +33°C° 0.6 mm 3 m/S 746 mmHg 80%
19:00 +31°C° 0.1 mm 3 m/S 747 mmHg 82%
20:00 +31°C° 0.1 mm 3 m/S 747 mmHg 84%
21:00 +30°C° 0.1 mm 3 m/S 748 mmHg 87%
22:00 +30°C° 0.5 mm 3 m/S 748 mmHg 87%
23:00 +30°C° 0.5 mm 3 m/S 748 mmHg 87%

13 August, Donnerstag

Zeit Temperatur Niederschläge Wind Luftdruck Luftfeuchtigkeit
00:00 +30°C° 0.5 mm 3 m/S 748 mmHg 87%
01:00 +29°C° 1.2 mm 3 m/S 748 mmHg 88%
02:00 +29°C° 1.2 mm 3 m/S 747 mmHg 89%
03:00 +29°C° 1.2 mm 4 m/S 747 mmHg 90%
04:00 +29°C° 0.2 mm 4 m/S 747 mmHg 91%
05:00 +28°C° 0.2 mm 4 m/S 747 mmHg 92%
06:00 +28°C° 0.2 mm 4 m/S 747 mmHg 92%
07:00 +29°C° 0.6 mm 4 m/S 747 mmHg 88%
08:00 +30°C° 0.6 mm 4 m/S 748 mmHg 84%
09:00 +32°C° 0.6 mm 5 m/S 748 mmHg 80%
10:00 +33°C° 0.9 mm 4 m/S 748 mmHg 76%
11:00 +34°C° 0.9 mm 4 m/S 748 mmHg 73%
12:00 +35°C° 0.9 mm 4 m/S 747 mmHg 70%
13:00 +35°C° 1.5 mm 4 m/S 747 mmHg 70%
14:00 +35°C° 1.5 mm 4 m/S 746 mmHg 70%
15:00 +35°C° 1.5 mm 5 m/S 745 mmHg 70%
16:00 +34°C° 1 mm 4 m/S 745 mmHg 73%
17:00 +34°C° 1 mm 4 m/S 745 mmHg 75%
18:00 +33°C° 1 mm 3 m/S 745 mmHg 78%
19:00 +33°C° 0.6 mm 3 m/S 746 mmHg 79%
20:00 +31°C° 0.6 mm 3 m/S 746 mmHg 81%
21:00 +32°C° 0.6 mm 4 m/S 747 mmHg 83%
22:00 +30°C° 0.9 mm 4 m/S 747 mmHg 84%
23:00 +30°C° 0.9 mm 4 m/S 747 mmHg 85%

14 August, Freitag

Zeit Temperatur Niederschläge Wind Luftdruck Luftfeuchtigkeit
00:00 +30°C° 0.9 mm 5 m/S 747 mmHg 86%
01:00 +30°C° 0.6 mm 4 m/S 747 mmHg 87%
02:00 +29°C° 0.6 mm 4 m/S 746 mmHg 89%
03:00 +29°C° 0.6 mm 4 m/S 746 mmHg 90%
04:00 +29°C° 0.9 mm 4 m/S 746 mmHg 90%
05:00 +29°C° 0.9 mm 3 m/S 746 mmHg 90%
06:00 +29°C° 0.9 mm 3 m/S 746 mmHg 90%
07:00 +30°C° 1.8 mm 4 m/S 747 mmHg 87%
08:00 +30°C° 1.8 mm 4 m/S 747 mmHg 84%
09:00 +32°C° 1.8 mm 5 m/S 748 mmHg 81%
10:00 +33°C° 2.1 mm 5 m/S 748 mmHg 79%
11:00 +33°C° 2.1 mm 5 m/S 747 mmHg 77%
12:00 +34°C° 2.1 mm 5 m/S 747 mmHg 75%
13:00 +34°C° 1.9 mm 5 m/S 746 mmHg 73%
14:00 +35°C° 1.9 mm 4 m/S 745 mmHg 72%
15:00 +35°C° 1.9 mm 4 m/S 745 mmHg 70%
16:00 +34°C° 1.1 mm 4 m/S 744 mmHg 73%
17:00 +34°C° 1.1 mm 4 m/S 744 mmHg 77%
18:00 +33°C° 1.1 mm 3 m/S 744 mmHg 80%
19:00 +33°C° 0.3 mm 3 m/S 745 mmHg 82%
20:00 +31°C° 0.3 mm 3 m/S 746 mmHg 84%
21:00 +30°C° 0.3 mm 3 m/S 746 mmHg 86%
22:00 +30°C° 2 mm 4 m/S 746 mmHg 87%
23:00 +30°C° 2 mm 4 m/S 746 mmHg 87%
Mehr zeigen